Location: Pine Mountain Observatory
(43.7910°N, 120.9377°W)
Time: 00:25:14
(UTC-07:00)

Cosmos 1867 - Visible Passes

Search period start: 19 August 2017 00:00
Search period end: 29 August 2017 00:00
Orbit: 778 x 798 km, 65.0° (Epoch: 18 August)

Date Brightness Start Highest point End Pass type
(mag) Time Alt. Az. Time Alt. Az. Time Alt. Az.
24 Aug 6.3 05:18:17 10° SE 05:20:32 13° ESE 05:22:48 10° E visible
27 Aug 5.1 05:23:39 10° S 05:28:32 35° ESE 05:33:27 10° NE visible
28 Aug 5.5 04:52:36 10° SSE 04:57:02 26° ESE 05:01:28 10° ENE visible
